Location: Poprad
(49.0500°N, 20.3000°E)
Time: 19:19:06
(UTC+02:00)

ITUPSAT 1 - Pass Details

Date: 29 April 2024
Orbit: 694 x 707 km, 98.5° (Epoch: 20 May)

Event Time Altitude Azimuth Distance (km) Brightness Sun altitude
Rises 23:06:02 0° 12° (NNE) 3,086 ? -23.1°
Reaches altitude 10° 23:08:18 10° 11° (N) 2,163 ? -23.2°
Maximum altitude 23:13:00 71° 288° (WNW) 737 ? -23.5°
Enters shadow 23:14:05 51° 224° (SW) 872 ? -23.6°
